EN

Hourly Weather Labach

Today, 28 July, Wednesday

Time Temperature Precipitation Wind Pressure Humidity
00:00 +21°C° 0 mm 2 mps 741 mmHg 89%
01:00 +20°C° 0 mm 2 mps 741 mmHg 89%
02:00 +19°C° 0 mm 2 mps 741 mmHg 90%
03:00 +19°C° 0 mm 2 mps 741 mmHg 89%
04:00 +20°C° 0 mm 1 mps 741 mmHg 89%
05:00 +19°C° 0 mm 1 mps 741 mmHg 88%
06:00 +21°C° 0 mm 1 mps 741 mmHg 84%
07:00 +23°C° 0 mm 1 mps 741 mmHg 79%
08:00 +25°C° 0 mm 1 mps 741 mmHg 74%
09:00 +26°C° 0 mm 1 mps 741 mmHg 67%
10:00 +28°C° 0 mm 1 mps 741 mmHg 60%
11:00 +30°C° 0 mm 2 mps 741 mmHg 54%
12:00 +30°C° 0 mm 2 mps 741 mmHg 51%
13:00 +31°C° 0 mm 2 mps 740 mmHg 49%
14:00 +33°C° 0 mm 3 mps 740 mmHg 47%
15:00 +32°C° 0 mm 2 mps 740 mmHg 47%
16:00 +32°C° 0 mm 2 mps 739 mmHg 46%
17:00 +32°C° 0 mm 1 mps 739 mmHg 46%
18:00 +30°C° 0.1 mm 1 mps 739 mmHg 51%
19:00 +28°C° 0.1 mm 1 mps 739 mmHg 57%
20:00 +26°C° 0.1 mm 2 mps 738 mmHg 62%
21:00 +25°C° 0 mm 2 mps 738 mmHg 65%
22:00 +25°C° 0 mm 2 mps 738 mmHg 68%
23:00 +24°C° 0 mm 3 mps 738 mmHg 71%

Tomorrow, 29 July, Thursday

Time Temperature Precipitation Wind Pressure Humidity
00:00 +24°C° 0 mm 3 mps 738 mmHg 71%
01:00 +24°C° 0 mm 2 mps 738 mmHg 71%
02:00 +23°C° 0 mm 2 mps 738 mmHg 71%
03:00 +23°C° 0 mm 2 mps 738 mmHg 72%
04:00 +21°C° 0 mm 2 mps 737 mmHg 73%
05:00 +21°C° 0 mm 2 mps 737 mmHg 74%
06:00 +21°C° 0 mm 4 mps 738 mmHg 75%
07:00 +22°C° 0 mm 5 mps 738 mmHg 76%
08:00 +23°C° 0 mm 6 mps 738 mmHg 77%
09:00 +24°C° 0 mm 6 mps 738 mmHg 75%
10:00 +24°C° 0 mm 6 mps 739 mmHg 73%
11:00 +26°C° 0 mm 6 mps 739 mmHg 71%
12:00 +26°C° 0 mm 6 mps 739 mmHg 69%
13:00 +27°C° 0 mm 5 mps 739 mmHg 67%
14:00 +27°C° 0 mm 5 mps 739 mmHg 64%
15:00 +27°C° 0.2 mm 5 mps 739 mmHg 66%
16:00 +26°C° 0.2 mm 5 mps 739 mmHg 67%
17:00 +26°C° 0.2 mm 4 mps 739 mmHg 69%
18:00 +25°C° 0.1 mm 4 mps 739 mmHg 73%
19:00 +24°C° 0.1 mm 3 mps 739 mmHg 77%
20:00 +21°C° 0.1 mm 2 mps 739 mmHg 82%
21:00 +21°C° 0 mm 2 mps 739 mmHg 82%
22:00 +20°C° 0 mm 2 mps 739 mmHg 83%
23:00 +19°C° 0 mm 2 mps 739 mmHg 84%

Day after tomorrow, 30 July, Friday

Time Temperature Precipitation Wind Pressure Humidity
00:00 +19°C° 0 mm 2 mps 739 mmHg 84%
01:00 +19°C° 0 mm 2 mps 740 mmHg 84%
02:00 +18°C° 0 mm 2 mps 740 mmHg 85%
03:00 +18°C° 0 mm 2 mps 740 mmHg 86%
04:00 +18°C° 0 mm 2 mps 739 mmHg 87%
05:00 +17°C° 0 mm 2 mps 739 mmHg 89%
06:00 +19°C° 0 mm 2 mps 739 mmHg 83%
07:00 +21°C° 0 mm 2 mps 740 mmHg 77%
08:00 +24°C° 0 mm 2 mps 740 mmHg 70%
09:00 +25°C° 0 mm 2 mps 740 mmHg 64%
10:00 +27°C° 0 mm 3 mps 740 mmHg 58%
11:00 +28°C° 0 mm 3 mps 740 mmHg 52%
12:00 +29°C° 0 mm 3 mps 739 mmHg 49%
13:00 +29°C° 0 mm 3 mps 739 mmHg 46%
14:00 +30°C° 0 mm 3 mps 739 mmHg 43%
15:00 +30°C° 0 mm 2 mps 739 mmHg 45%
16:00 +30°C° 0 mm 1 mps 738 mmHg 47%
17:00 +29°C° 0 mm 1 mps 738 mmHg 50%
18:00 +28°C° 0 mm 1 mps 738 mmHg 55%
19:00 +26°C° 0 mm 2 mps 738 mmHg 61%
20:00 +25°C° 0 mm 2 mps 738 mmHg 66%
21:00 +24°C° 0.1 mm 2 mps 738 mmHg 69%
22:00 +23°C° 0.1 mm 2 mps 738 mmHg 71%
23:00 +21°C° 0.1 mm 2 mps 737 mmHg 74%

31 July, Saturday

Time Temperature Precipitation Wind Pressure Humidity
00:00 +21°C° 0 mm 3 mps 737 mmHg 74%
01:00 +20°C° 0 mm 3 mps 737 mmHg 74%
02:00 +20°C° 0 mm 3 mps 737 mmHg 74%
03:00 +20°C° 0 mm 3 mps 737 mmHg 75%
04:00 +19°C° 0 mm 3 mps 737 mmHg 76%
05:00 +19°C° 0 mm 2 mps 736 mmHg 77%
06:00 +21°C° 0 mm 3 mps 736 mmHg 73%
07:00 +24°C° 0 mm 3 mps 736 mmHg 68%
08:00 +26°C° 0 mm 3 mps 737 mmHg 63%
09:00 +27°C° 0 mm 3 mps 736 mmHg 59%
10:00 +29°C° 0 mm 4 mps 736 mmHg 55%
11:00 +30°C° 0 mm 4 mps 736 mmHg 51%
12:00 +32°C° 0 mm 4 mps 736 mmHg 48%
13:00 +33°C° 0 mm 4 mps 735 mmHg 45%
14:00 +33°C° 0 mm 4 mps 735 mmHg 42%
15:00 +32°C° 0.2 mm 4 mps 734 mmHg 49%
16:00 +30°C° 0.2 mm 4 mps 734 mmHg 55%
17:00 +29°C° 0.2 mm 4 mps 733 mmHg 62%
18:00 +26°C° 2.8 mm 4 mps 734 mmHg 72%
19:00 +21°C° 2.8 mm 5 mps 735 mmHg 83%
20:00 +17°C° 2.8 mm 5 mps 736 mmHg 93%
21:00 +17°C° 0 mm 4 mps 737 mmHg 94%
22:00 +17°C° 0 mm 3 mps 737 mmHg 96%
23:00 +17°C° 0 mm 2 mps 738 mmHg 97%

1 August, Sunday

Time Temperature Precipitation Wind Pressure Humidity
00:00 +16°C° 0 mm 2 mps 738 mmHg 97%
01:00 +16°C° 0 mm 2 mps 738 mmHg 97%
02:00 +16°C° 0 mm 2 mps 738 mmHg 96%
03:00 +16°C° 0 mm 2 mps 738 mmHg 95%
04:00 +16°C° 0 mm 2 mps 738 mmHg 94%
05:00 +16°C° 0 mm 2 mps 738 mmHg 93%
06:00 +18°C° 0 mm 1 mps 738 mmHg 87%
07:00 +20°C° 0 mm 1 mps 738 mmHg 82%
08:00 +22°C° 0 mm 1 mps 739 mmHg 76%
09:00 +23°C° 0 mm 1 mps 739 mmHg 68%
10:00 +25°C° 0 mm 2 mps 739 mmHg 61%
11:00 +26°C° 0 mm 2 mps 739 mmHg 53%
12:00 +27°C° 0 mm 3 mps 738 mmHg 51%
13:00 +28°C° 0 mm 3 mps 738 mmHg 49%
14:00 +29°C° 0 mm 4 mps 737 mmHg 46%
15:00 +29°C° 0 mm 4 mps 736 mmHg 49%
16:00 +29°C° 0 mm 5 mps 736 mmHg 52%
17:00 +29°C° 0 mm 5 mps 735 mmHg 55%
18:00 +26°C° 4.9 mm 4 mps 735 mmHg 68%
19:00 +22°C° 4.9 mm 3 mps 735 mmHg 81%
20:00 +19°C° 4.9 mm 3 mps 734 mmHg 94%
21:00 +18°C° 0 mm 3 mps 734 mmHg 94%
22:00 +18°C° 0 mm 3 mps 734 mmHg 94%
23:00 +18°C° 0 mm 3 mps 734 mmHg 94%

2 August, Monday

Time Temperature Precipitation Wind Pressure Humidity
00:00 +17°C° 0.1 mm 2 mps 734 mmHg 94%
01:00 +17°C° 0.1 mm 2 mps 734 mmHg 94%
02:00 +17°C° 0.1 mm 2 mps 734 mmHg 94%
03:00 +17°C° 0.3 mm 3 mps 734 mmHg 95%
04:00 +17°C° 0.3 mm 3 mps 734 mmHg 96%
05:00 +17°C° 0.3 mm 4 mps 735 mmHg 97%
06:00 +17°C° 0.1 mm 4 mps 735 mmHg 96%
07:00 +16°C° 0.1 mm 5 mps 736 mmHg 95%
08:00 +16°C° 0.1 mm 5 mps 736 mmHg 94%
09:00 +17°C° 0 mm 5 mps 737 mmHg 87%
10:00 +19°C° 0 mm 5 mps 737 mmHg 80%
11:00 +20°C° 0 mm 5 mps 738 mmHg 73%
12:00 +21°C° 0 mm 4 mps 738 mmHg 68%
13:00 +22°C° 0 mm 4 mps 738 mmHg 63%
14:00 +23°C° 0 mm 4 mps 738 mmHg 58%
15:00 +23°C° 0 mm 4 mps 738 mmHg 58%
16:00 +23°C° 0 mm 4 mps 738 mmHg 59%
17:00 +23°C° 0 mm 4 mps 738 mmHg 59%
18:00 +22°C° 0 mm 3 mps 738 mmHg 65%
19:00 +20°C° 0 mm 2 mps 738 mmHg 71%
20:00 +19°C° 0 mm 2 mps 738 mmHg 77%
21:00 +18°C° 0 mm 2 mps 739 mmHg 80%
22:00 +17°C° 0 mm 2 mps 739 mmHg 82%
23:00 +17°C° 0 mm 2 mps 739 mmHg 85%
Show more